• Em Portugal
  • Lista de países
  • Para 7 dias
  • Temperatura da água
  • Mapas de satélite
  • Mapa do tempo
  • Widgets de tempo
  • user-avatar
    Iniciar Sessão

    Previsão horária em Kepina

    Hoje, 17 Agosto, Sexta-feira

    Tempo Temperatura Precipitação Vento Pressão Humidade
    00:00 +18°C° 0 mm 2 m/s 759 mmHg 71%
    01:00 +18°C° 0 mm 2 m/s 759 mmHg 72%
    02:00 +17°C° 0 mm 2 m/s 759 mmHg 74%
    03:00 +17°C° 0 mm 2 m/s 759 mmHg 76%
    04:00 +17°C° 0 mm 3 m/s 759 mmHg 78%
    05:00 +18°C° 0 mm 3 m/s 759 mmHg 75%
    06:00 +19°C° 0 mm 3 m/s 759 mmHg 73%
    07:00 +21°C° 0 mm 3 m/s 759 mmHg 73%
    08:00 +22°C° 0 mm 3 m/s 759 mmHg 66%
    09:00 +25°C° 0 mm 3 m/s 759 mmHg 60%
    10:00 +27°C° 0 mm 3 m/s 759 mmHg 54%
    11:00 +27°C° 0 mm 3 m/s 759 mmHg 52%
    12:00 +28°C° 0 mm 3 m/s 758 mmHg 49%
    13:00 +28°C° 0 mm 3 m/s 758 mmHg 47%
    14:00 +28°C° 0 mm 3 m/s 758 mmHg 49%
    15:00 +28°C° 0 mm 2 m/s 758 mmHg 51%
    16:00 +28°C° 0 mm 2 m/s 757 mmHg 53%
    17:00 +26°C° 0,1 mm 2 m/s 757 mmHg 58%
    18:00 +25°C° 0,1 mm 2 m/s 757 mmHg 62%
    19:00 +24°C° 0,1 mm 1 m/s 757 mmHg 67%
    20:00 +23°C° 0 mm 2 m/s 757 mmHg 69%
    21:00 +23°C° 0 mm 2 m/s 757 mmHg 72%
    22:00 +21°C° 0 mm 2 m/s 757 mmHg 74%
    23:00 +20°C° 0 mm 2 m/s 758 mmHg 76%

    Amanhã, 18 Agosto, Sábado

    Tempo Temperatura Precipitação Vento Pressão Humidade
    00:00 +20°C° 0 mm 2 m/s 758 mmHg 78%
    01:00 +19°C° 0 mm 2 m/s 758 mmHg 79%
    02:00 +19°C° 0 mm 2 m/s 758 mmHg 80%
    03:00 +19°C° 0 mm 2 m/s 758 mmHg 81%
    04:00 +19°C° 0 mm 2 m/s 758 mmHg 81%
    05:00 +19°C° 0 mm 2 m/s 758 mmHg 79%
    06:00 +20°C° 0 mm 2 m/s 758 mmHg 76%
    07:00 +22°C° 0 mm 1 m/s 758 mmHg 74%
    08:00 +24°C° 0,3 mm 2 m/s 759 mmHg 70%
    09:00 +25°C° 0,3 mm 2 m/s 759 mmHg 66%
    10:00 +26°C° 0,3 mm 2 m/s 759 mmHg 63%
    11:00 +26°C° 1,2 mm 2 m/s 759 mmHg 62%
    12:00 +27°C° 1,2 mm 3 m/s 759 mmHg 61%
    13:00 +27°C° 1,2 mm 3 m/s 759 mmHg 61%
    14:00 +27°C° 0,1 mm 3 m/s 759 mmHg 61%
    15:00 +26°C° 0,1 mm 3 m/s 759 mmHg 62%
    16:00 +26°C° 0,1 mm 3 m/s 759 mmHg 63%
    17:00 +24°C° 0 mm 3 m/s 759 mmHg 68%
    18:00 +22°C° 0 mm 3 m/s 759 mmHg 74%
    19:00 +20°C° 0 mm 3 m/s 759 mmHg 79%
    20:00 +19°C° 0 mm 2 m/s 760 mmHg 80%
    21:00 +18°C° 0 mm 2 m/s 760 mmHg 80%
    22:00 +17°C° 0 mm 2 m/s 760 mmHg 81%
    23:00 +17°C° 0 mm 2 m/s 760 mmHg 81%

    Depois de amanhã, 19 Agosto, Domingo

    Tempo Temperatura Precipitação Vento Pressão Humidade
    00:00 +16°C° 0 mm 1 m/s 760 mmHg 81%
    01:00 +16°C° 0 mm 1 m/s 760 mmHg 80%
    02:00 +16°C° 0 mm 1 m/s 760 mmHg 80%
    03:00 +16°C° 0 mm 2 m/s 760 mmHg 79%
    04:00 +15°C° 0 mm 2 m/s 760 mmHg 78%
    05:00 +17°C° 0 mm 2 m/s 760 mmHg 75%
    06:00 +18°C° 0 mm 2 m/s 761 mmHg 71%
    07:00 +19°C° 0 mm 2 m/s 761 mmHg 67%
    08:00 +21°C° 0 mm 2 m/s 761 mmHg 61%
    09:00 +22°C° 0 mm 3 m/s 761 mmHg 55%
    10:00 +25°C° 0 mm 3 m/s 761 mmHg 48%
    11:00 +26°C° 0 mm 3 m/s 761 mmHg 46%
    12:00 +27°C° 0 mm 3 m/s 760 mmHg 44%
    13:00 +27°C° 0 mm 3 m/s 760 mmHg 43%
    14:00 +28°C° 0 mm 3 m/s 760 mmHg 43%
    15:00 +28°C° 0 mm 3 m/s 760 mmHg 44%
    16:00 +28°C° 0 mm 3 m/s 760 mmHg 45%
    17:00 +26°C° 0 mm 2 m/s 760 mmHg 53%
    18:00 +24°C° 0 mm 2 m/s 759 mmHg 60%
    19:00 +21°C° 0 mm 2 m/s 759 mmHg 67%
    20:00 +20°C° 0 mm 2 m/s 759 mmHg 71%
    21:00 +21°C° 0 mm 1 m/s 759 mmHg 74%
    22:00 +20°C° 0 mm 1 m/s 759 mmHg 78%
    23:00 +19°C° 0 mm 1 m/s 759 mmHg 78%

    20 Agosto, Segunda-feira

    Tempo Temperatura Precipitação Vento Pressão Humidade
    00:00 +19°C° 0 mm 1 m/s 759 mmHg 78%
    01:00 +19°C° 0 mm 1 m/s 759 mmHg 78%
    02:00 +19°C° 0 mm 1 m/s 759 mmHg 77%
    03:00 +18°C° 0 mm 2 m/s 758 mmHg 76%
    04:00 +18°C° 0 mm 2 m/s 758 mmHg 76%
    05:00 +19°C° 0 mm 2 m/s 758 mmHg 73%
    06:00 +20°C° 0 mm 2 m/s 758 mmHg 70%
    07:00 +21°C° 0 mm 2 m/s 758 mmHg 67%
    08:00 +24°C° 0 mm 2 m/s 758 mmHg 61%
    09:00 +26°C° 0 mm 2 m/s 758 mmHg 55%
    10:00 +28°C° 0 mm 3 m/s 758 mmHg 49%
    11:00 +28°C° 0 mm 3 m/s 758 mmHg 47%
    12:00 +29°C° 0 mm 3 m/s 758 mmHg 46%
    13:00 +29°C° 0 mm 3 m/s 757 mmHg 44%
    14:00 +29°C° 0 mm 2 m/s 757 mmHg 46%
    15:00 +29°C° 0 mm 2 m/s 757 mmHg 47%
    16:00 +29°C° 0 mm 2 m/s 757 mmHg 48%
    17:00 +27°C° 0 mm 2 m/s 757 mmHg 54%
    18:00 +26°C° 0 mm 2 m/s 757 mmHg 61%
    19:00 +24°C° 0 mm 2 m/s 757 mmHg 67%
    20:00 +23°C° 0,2 mm 2 m/s 757 mmHg 72%
    21:00 +21°C° 0,2 mm 2 m/s 757 mmHg 77%
    22:00 +21°C° 0,2 mm 1 m/s 757 mmHg 82%
    23:00 +21°C° 0,2 mm 1 m/s 757 mmHg 83%

    21 Agosto, Terça-feira

    Tempo Temperatura Precipitação Vento Pressão Humidade
    00:00 +21°C° 0,2 mm 1 m/s 757 mmHg 84%
    01:00 +20°C° 0,2 mm 1 m/s 756 mmHg 85%
    02:00 +20°C° 0,2 mm 1 m/s 756 mmHg 85%
    03:00 +20°C° 0,2 mm 1 m/s 756 mmHg 85%
    04:00 +20°C° 0,2 mm 1 m/s 756 mmHg 85%
    05:00 +21°C° 0,5 mm 1 m/s 756 mmHg 85%
    06:00 +21°C° 0,5 mm 1 m/s 756 mmHg 85%
    07:00 +21°C° 0,5 mm 1 m/s 756 mmHg 85%
    08:00 +23°C° 0 mm 2 m/s 757 mmHg 78%
    09:00 +24°C° 0 mm 2 m/s 757 mmHg 72%
    10:00 +26°C° 0 mm 2 m/s 757 mmHg 65%
    11:00 +26°C° 0,3 mm 3 m/s 757 mmHg 64%
    12:00 +26°C° 0,3 mm 3 m/s 757 mmHg 63%
    13:00 +27°C° 0,3 mm 4 m/s 757 mmHg 61%
    14:00 +26°C° 0,1 mm 4 m/s 757 mmHg 61%
    15:00 +26°C° 0,1 mm 5 m/s 757 mmHg 60%
    16:00 +26°C° 0,1 mm 5 m/s 757 mmHg 59%
    17:00 +23°C° 0 mm 4 m/s 757 mmHg 61%
    18:00 +21°C° 0 mm 4 m/s 757 mmHg 63%
    19:00 +20°C° 0 mm 3 m/s 757 mmHg 66%
    20:00 +19°C° 0 mm 3 m/s 758 mmHg 66%
    21:00 +18°C° 0 mm 3 m/s 758 mmHg 67%
    22:00 +17°C° 0 mm 2 m/s 758 mmHg 68%
    23:00 +16°C° 0 mm 2 m/s 758 mmHg 70%

    22 Agosto, Quarta-feira

    Tempo Temperatura Precipitação Vento Pressão Humidade
    00:00 +16°C° 0 mm 2 m/s 758 mmHg 72%
    01:00 +16°C° 0 mm 2 m/s 758 mmHg 75%
    02:00 +16°C° 0 mm 2 m/s 758 mmHg 76%
    03:00 +16°C° 0 mm 2 m/s 758 mmHg 78%
    04:00 +15°C° 0 mm 2 m/s 758 mmHg 80%
    05:00 +17°C° 0 mm 3 m/s 758 mmHg 77%
    06:00 +18°C° 0 mm 3 m/s 758 mmHg 74%
    07:00 +19°C° 0 mm 3 m/s 758 mmHg 70%
    08:00 +21°C° 0 mm 4 m/s 758 mmHg 65%
    09:00 +23°C° 0 mm 4 m/s 758 mmHg 60%
    10:00 +25°C° 0 mm 5 m/s 758 mmHg 55%
    11:00 +26°C° 0 mm 5 m/s 758 mmHg 55%
    12:00 +26°C° 0 mm 5 m/s 758 mmHg 55%
    13:00 +27°C° 0 mm 5 m/s 757 mmHg 54%
    14:00 +26°C° 0 mm 5 m/s 757 mmHg 56%
    15:00 +26°C° 0 mm 5 m/s 757 mmHg 57%
    16:00 +26°C° 0 mm 4 m/s 757 mmHg 58%
    17:00 +25°C° 0,1 mm 4 m/s 757 mmHg 63%
    18:00 +22°C° 0,1 mm 3 m/s 757 mmHg 68%
    19:00 +21°C° 0,1 mm 2 m/s 757 mmHg 73%
    20:00 +20°C° 0 mm 2 m/s 758 mmHg 75%
    21:00 +19°C° 0 mm 2 m/s 758 mmHg 76%
    22:00 +18°C° 0 mm 2 m/s 758 mmHg 78%
    23:00 +18°C° 0 mm 2 m/s 758 mmHg 80%
    Mostrar mais